Weather History for Fort Wayne, IN

Change the Weather History Date:

Tuesday, December 4, 2012

  Actual Average Record
Temperature  
Mean Temperature 49 °F 33 °F  
Max Temperature 60 °F 40 °F 64 °F (1998)
Min Temperature 38 °F 26 °F 4 °F (1976)
Degree Days  
Heating Degree Days 16 32  
Month to date heating degree days 52 126  
Since 1 July heating degree days 1373 1343  
Cooling Degree Days 0 0  
Month to date cooling degree days 0 0  
Year to date cooling degree days 1108 809  
Moisture  
Dew Point 47 °F    
Average Humidity 84    
Maximum Humidity 93    
Minimum Humidity 75    
Precipitation  
Precipitation 0.09 in 0.09 in 1.09 in (1920)
Month to date precipitation 0.18 0.38  
Year to date precipitation 26.56 35.95  
Snow  
Snow 0.00 in 0.20 in 1.80 in (1972)
Month to date snowfall 0.0 0.7  
Since 1 July snowfall 0.6 2.8  
Snow Depth 0.00 in    
Sea Level Pressure  
Sea Level Pressure 30.05 in    
Wind  
Wind Speed 9 mph (West)    
Max Wind Speed 21 mph    
Max Gust Speed 26 mph    
Visibility 9 miles    
Events Rain    
T = Trace of Precipitation, MM = Missing Value Source: NWS Daily Summary

Daily Weather History Graph

Daily Weather History Graph

Search for Another Location

Airport:

Trip Planner

Search our weather history database for the weather conditions in past years. The results will help you decide how hot, cold, wet, or windy it might be!

Date:

Astronomy

Dec. 04, 2012 Rise Set
Actual Time 7:49 AM EST 5:12 PM EST
Civil Twilight 7:18 AM EST 5:43 PM EST
Nautical Twilight 6:44 AM EST 6:17 PM EST
Astronomical Twilight 6:11 AM EST 6:50 PM EST
Moon 11:01 PM EST (12/4) 11:41 AM EST (12/4)
Length of Visible Light 10h 24m
Length of Day
9h 22m
Waning Gibbous, 69% of the Moon is Illuminated
Dec 4
Waning Gibbous
Dec 6
Last Quarter
Dec 13
New
Dec 20
First Quarter
Dec 28
Full

Hourly Weather History & Observations

Time (EST) Temp. Windchill Dew Point Humidity Pressure Visibility Wind Dir Wind Speed Gust Speed Precip Events Conditions
12:54 AM 59.0 °F - 54.0 °F 83% 29.97 in 10.0 mi South 13.8 mph - N/A   Mostly Cloudy
1:54 AM 59.0 °F - 53.1 °F 81% 29.96 in 10.0 mi SSW 16.1 mph - N/A   Mostly Cloudy
2:54 AM 59.0 °F - 52.0 °F 78% 29.97 in 10.0 mi SSW 11.5 mph - N/A   Mostly Cloudy
3:54 AM 57.9 °F - 51.1 °F 78% 29.96 in 10.0 mi SSW 13.8 mph - N/A   Mostly Cloudy
4:54 AM 57.9 °F - 52.0 °F 81% 29.96 in 10.0 mi SSW 12.7 mph - N/A   Overcast
5:54 AM 59.0 °F - 52.0 °F 78% 29.96 in 10.0 mi SSW 12.7 mph - N/A   Overcast
6:03 AM 59.0 °F - 51.8 °F 77% 29.96 in 10.0 mi SSW 12.7 mph - N/A   Overcast
6:54 AM 57.9 °F - 54.0 °F 87% 29.98 in 7.0 mi SW 12.7 mph - 0.01 in Rain Light Rain
7:54 AM 57.9 °F - 54.0 °F 87% 29.99 in 10.0 mi WSW 11.5 mph - 0.01 in   Overcast
8:21 AM 55.4 °F - 55.4 °F 100% 30.01 in 4.0 mi NW 19.6 mph 23.0 mph 0.00 in Rain Light Rain
8:26 AM 53.6 °F - 51.8 °F 94% 30.01 in 7.0 mi NW 18.4 mph 23.0 mph 0.00 in   Overcast
8:37 AM 51.8 °F - 50.0 °F 94% 30.01 in 6.0 mi NW 9.2 mph - 0.00 in   Overcast
8:54 AM 50.0 °F - 48.9 °F 96% 30.03 in 8.0 mi NNW 12.7 mph - 0.00 in   Overcast
9:01 AM 50.0 °F - 48.2 °F 94% 30.03 in 8.0 mi NNW 11.5 mph - N/A   Overcast
9:54 AM 48.9 °F - 46.9 °F 93% 30.05 in 10.0 mi NW 11.5 mph - 0.01 in   Overcast
10:19 AM 48.2 °F - 46.4 °F 93% 30.06 in 9.0 mi NNW 9.2 mph - 0.00 in Rain Light Rain
10:54 AM 46.9 °F - 46.0 °F 97% 30.06 in 7.0 mi NNW 11.5 mph - 0.02 in Rain Light Rain
11:02 AM 46.4 °F 41.5 °F 44.6 °F 93% 30.06 in 7.0 mi NNW 10.4 mph - 0.01 in Rain Light Rain
11:54 AM 46.9 °F - 44.1 °F 90% 30.07 in 10.0 mi Calm Calm - 0.02 in Rain Light Rain
12:54 PM 46.9 °F - 44.1 °F 90% 30.06 in 10.0 mi WNW 3.5 mph - 0.01 in Rain Light Rain
1:54 PM 46.9 °F - 44.1 °F 90% 30.07 in 10.0 mi West 6.9 mph - 0.01 in Rain Light Rain
2:54 PM 48.0 °F - 44.1 °F 86% 30.07 in 10.0 mi West 8.1 mph - 0.00 in Rain Light Rain
3:54 PM 48.9 °F - 44.1 °F 83% 30.08 in 10.0 mi West 6.9 mph - 0.00 in   Overcast
4:54 PM 48.0 °F - 45.0 °F 89% 30.12 in 10.0 mi West 6.9 mph - N/A   Mostly Cloudy
5:54 PM 44.1 °F 40.8 °F 41.0 °F 89% 30.13 in 10.0 mi WSW 5.8 mph - N/A   Mostly Cloudy
6:54 PM 43.0 °F 38.8 °F 39.9 °F 89% 30.14 in 10.0 mi WSW 6.9 mph - N/A   Mostly Cloudy
7:54 PM 41.0 °F 36.4 °F 37.9 °F 89% 30.15 in 10.0 mi WSW 6.9 mph - N/A   Mostly Cloudy
8:54 PM 42.1 °F 36.6 °F 39.0 °F 89% 30.17 in 10.0 mi WSW 9.2 mph - N/A   Scattered Clouds
9:54 PM 41.0 °F 35.2 °F 37.9 °F 89% 30.17 in 10.0 mi WSW 9.2 mph - N/A   Partly Cloudy
10:54 PM 39.9 °F 34.5 °F 36.0 °F 86% 30.19 in 10.0 mi WSW 8.1 mph - N/A   Partly Cloudy
11:54 PM 39.9 °F 35.1 °F 35.1 °F 83% 30.21 in 10.0 mi West 6.9 mph - N/A   Partly Cloudy